Dewpoint
60 57 56 41 18 26 27 31 37 36 37 41 45 47 47 48 49 48 56 60 61 60 62 66 70 70 70 71 71 71 72 71 71 71 70 71 70 70 70 69 69 68 68 68 69 68 68 69 70
58 52 44 39 25 19 22 33 37 38 40 39 41 44 46 49 53 53 53 56 58 58 59 63 66 66 66 66 66 67 67 69 71 71 71 70 70 70 70 70 70 70 69 69 68 68 70 71 70
55 50 38 29 23 24 29 36 38 40 40 38 38 43 45 45 51 50 54 53 53 54 56 60 62 62 62 62 62 62 62 63 64 66 70 71 71 70 70 70 70 70 70 70 70 71 70 70 69
50 43 34 24 18 28 32 37 33 33 33 37 40 40 42 40 44 51 52 45 47 50 53 58 58 58 58 58 58 59 59 59 59 59 61 63 65 68 70 70 71 71 71 70 70 70 71 71 71
46 39 28 24 28 30 37 35 33 31 33 33 36 39 39 38 39 41 41 42 41 45 50 52 56 56 57 57 57 57 57 58 58 57 57 57 57 58 61 66 68 70 70 70 70 70 70 71 71
38 35 24 22 27 31 32 36 33 31 32 34 37 38 39 36 38 43 46 46 46 46 47 47 55 57 56 57 56 55 55 55 55 55 54 54 54 54 56 60 63 65 68 68 69 70 70 70 70
37 31 26 25 28 29 30 31 29 31 31 33 36 35 36 35 38 43 45 47 48 48 48 48 49 52 54 55 58 57 56 55 56 55 55 55 56 57 57 58 61 61 59 59 61 65 68 70 70
37 32 24 30 27 28 30 30 31 29 31 34 32 34 36 33 40 45 46 46 46 48 48 48 49 50 49 48 57 58 59 58 60 58 59 59 58 56 56 58 58 57 59 59 60 61 63 66 69
37 33 26 29 28 29 30 29 29 29 27 26 30 31 33 35 42 43 44 46 47 48 48 49 49 50 49 48 50 53 54 56 56 54 56 52 48 48 49 55 58 60 60 61 60 63 64 65 66
37 34 32 31 31 30 30 29 27 26 24 25 28 30 32 37 39 41 43 43 45 46 48 48 49 49 49 49 50 49 48 49 48 48 48 48 48 49 51 52 56 55 57 57 57 57 57 61 61
33 31 30 29 34 33 31 28 29 27 26 24 26 29 29 32 35 39 40 43 44 46 47 48 47 49 49 49 51 50 49 49 49 48 49 50 49 50 50 50 50 49 53 49 49 49 48 46 46
29 28 30 31 29 33 28 29 26 27 23 22 28 29 31 30 34 36 35 42 43 45 46 47 47 47 48 49 50 49 48 50 50 50 51 50 51 50 49 49 50 50 50 49 49 49 48 48 47
26 27 27 28 27 24 27 26 24 24 18 19 28 30 30 31 33 35 41 42 42 44 44 45 45 45 47 48 48 48 49 50 51 51 51 50 49 48 49 49 49 50 50 50 50 50 50 49 49
27 27 27 28 26 27 26 25 24 22 20 20 26 27 28 29 31 38 40 40 41 42 42 44 43 44 46 47 47 47 50 52 50 50 50 49 48 47 47 48 50 49 50 50 50 50 51 51 51
26 24 26 26 25 26 27 24 21 20 20 18 20 23 25 25 30 37 40 40 41 42 42 42 42 44 45 46 47 47 51 50 49 49 49 46 45 45 46 48 49 49 50 50 50 50 50 50 50
24 25 23 25 29 28 26 21 24 22 15 15 18 19 22 25 27 32 40 41 41 41 42 43 43 44 44 45 47 47 49 49 49 49 47 44 45 45 46 47 48 49 49 49 49 49 47 47 48
21 19 24 26 29 29 24 20 21 17 16 15 16 15 18 23 24 29 41 41 41 42 42 42 43 43 43 44 47 47 48 48 47 46 44 43 44 43 44 45 46 47 48 47 47 46 46 45 47
15 17 19 22 27 27 25 21 23 22 17 16 16 16 14 19 26 33 41 41 42 42 42 42 43 43 43 45 47 48 49 48 46 44 43 40 40 38 40 38 39 42 44 46 45 45 44 45 44
16 15 18 24 26 23 22 22 23 25 20 16 18 18 17 16 22 38 41 42 42 42 42 42 43 42 43 45 46 46 47 47 44 43 39 36 37 35 35 37 36 37 38 41 39 44 43 43 43
20 18 18 19 26 24 23 22 23 25 26 25 23 27 34 33 37 41 42 42 43 43 43 42 43 42 42 45 46 47 47 47 43 41 36 36 35 35 32 33 34 35 36 36 35 38 42 42 42
26 22 23 24 27 27 25 15 23 24 26 29 32 34 34 34 37 41 42 43 43 43 42 42 43 42 42 43 45 46 47 47 45 38 37 35 33 34 34 33 33 34 35 35 34 35 36 40 41
18 28 28 28 28 23 21 6 17 22 28 29 33 35 36 35 36 39 42 42 43 43 43 43 43 43 42 42 43 42 43 42 42 38 38 35 32 32 33 33 32 32 34 33 34 35 35 37 38
27 31 30 29 27 22 23 19 18 23 25 28 34 36 38 38 35 37 40 41 42 43 43 43 44 44 42 40 41 41 41 42 39 38 34 33 31 31 32 31 31 30 33 33 32 33 34 35 36
32 31 29 28 27 16 22 22 19 17 18 26 30 32 37 38 40 39 39 40 41 42 43 44 44 44 43 41 40 40 40 41 39 37 34 34 33 32 31 30 29 30 30 31 32 32 33 32 33
33 29 26 18 16 13 25 18 22 15 20 20 29 32 34 38 39 40 40 40 41 41 42 43 44 44 44 42 40 39 39 40 40 37 35 33 32 31 30 28 28 28 28 31 32 31 32 30 30
26 28 20 11 17 19 22 13 16 20 23 23 29 34 34 35 35 36 38 40 41 41 42 42 44 44 44 43 40 38 38 39 40 39 37 34 32 31 28 27 27 27 28 30 30 30 31 28 29
29 24 24 21 19 14 16 24 20 27 27 28 28 27 27 29 30 30 32 33 34 36 39 42 42 43 43 43 42 38 38 38 39 38 36 34 32 30 28 26 25 26 27 28 28 29 29 27 28
31 27 16 23 9 14 14 17 18 22 27 25 24 25 26 28 30 31 32 32 33 33 34 37 42 42 43 42 42 40 37 38 38 38 36 33 31 29 26 24 25 25 25 25 26 28 29 27 28
24 25 25 23 20 13 10 12 27 22 26 23 24 26 26 27 29 30 31 31 31 30 32 35 38 40 41 41 41 40 38 37 38 38 37 34 31 28 27 26 26 25 25 24 24 26 28 28 26
28 26 18 12 14 15 15 13 19 23 25 26 25 27 26 28 28 29 30 30 31 30 31 34 37 39 40 40 40 40 40 38 37 37 36 33 30 27 25 24 24 24 25 24 23 24 26 27 26
Lifted_Index
4 4 5 6 5 5 4 4 3 2 1 2 2 2 2 2 2 2 2 2 1 1 1 1 0 0 -0 -0 -1 -1 -1 -1 -1 -1 -1 -1 -1 -1 -1 -1 -1 -0 -0 -0 -0 -0 -1 -1 -1
4 5 6 6 5 4 4 4 3 2 2 2 2 3 3 3 3 3 3 3 3 2 2 1 1 1 1 1 1 1 0 -0 -0 -1 -1 -1 -1 -1 -1 -1 -1 -1 -1 -1 -1 -1 -1 -1 -1
5 5 6 5 4 4 4 4 4 3 3 3 4 4 4 4 4 3 4 5 5 4 3 3 3 3 3 3 3 3 3 2 2 1 0 -0 -0 -1 -1 -1 -1 -1 -1 -1 -1 -1 -1 -1 -1
5 6 6 5 4 4 4 4 4 4 4 5 5 5 6 5 5 4 5 6 6 6 5 6 6 6 6 6 6 6 5 5 5 4 3 3 2 1 1 -0 -1 -1 -1 -1 -2 -2 -2 -2 -2
6 6 5 4 4 4 4 4 5 5 5 6 6 6 7 6 5 4 5 6 7 7 8 9 9 9 9 8 9 9 8 8 7 7 6 6 6 5 4 2 0 -1 -1 -1 -2 -2 -2 -2 -2
6 6 5 4 4 4 4 5 5 6 6 6 6 7 7 7 7 6 5 7 8 10 11 11 11 10 10 9 9 9 9 9 9 9 9 9 8 8 7 5 3 2 1 0 -0 -1 -2 -2 -2
6 6 5 4 4 4 5 5 6 6 6 6 6 7 7 8 8 8 8 9 11 12 12 12 12 11 11 10 10 9 9 9 9 9 9 9 9 9 8 7 6 5 4 4 3 2 0 -1 -1
6 6 5 5 4 4 5 6 6 6 6 7 7 7 7 8 9 10 10 11 12 12 12 12 12 12 12 11 10 9 9 9 9 9 9 9 10 10 10 9 9 8 7 6 5 4 3 1 0
6 5 5 5 5 5 5 6 6 6 7 7 7 7 8 9 10 10 11 11 12 12 12 12 12 12 12 11 11 10 10 10 10 10 10 10 10 11 11 11 10 9 8 8 7 6 5 4 3
6 6 5 5 5 5 6 6 6 6 7 7 7 8 8 9 10 11 11 11 11 12 12 12 12 12 11 11 11 11 11 11 10 10 10 10 10 11 10 10 10 9 9 8 7 7 7 6 5
7 6 5 5 5 5 6 6 6 6 6 7 8 8 9 9 10 11 11 11 11 12 12 12 12 12 12 11 11 11 11 11 10 10 10 10 10 10 10 10 9 9 9 8 8 8 8 8 7
7 6 6 6 6 6 6 6 6 6 7 8 8 9 9 10 11 11 12 12 12 12 12 12 12 12 12 12 11 11 11 10 10 10 10 10 10 10 10 10 9 9 8 8 8 8 8 8 8
7 6 6 6 6 6 6 6 6 7 7 8 8 9 9 10 11 12 12 12 12 12 12 12 12 12 12 12 12 11 11 10 10 10 10 11 11 11 10 10 9 9 9 9 9 8 8 8 8
8 7 6 7 7 7 6 6 6 7 8 8 8 9 10 11 12 12 12 12 12 12 12 12 12 12 12 12 11 11 10 10 10 11 11 11 11 11 11 10 9 9 9 9 9 9 9 8 8
7 7 6 6 7 7 6 5 6 7 8 8 8 9 10 11 12 12 12 12 11 12 12 12 12 12 12 12 11 10 10 10 10 11 11 11 11 11 10 10 10 10 10 10 10 10 10 9 9
6 6 5 6 7 7 6 5 6 7 8 8 8 9 10 11 12 12 12 11 11 11 12 12 12 12 12 11 10 10 9 10 10 10 11 11 11 11 10 10 10 10 10 10 10 10 10 10 10
5 4 4 5 6 6 5 5 6 8 8 8 9 9 10 11 12 12 12 11 11 12 12 12 12 12 11 11 10 9 9 9 10 10 11 11 11 11 11 11 11 11 11 11 11 12 12 12 12
4 4 4 4 5 6 5 5 6 8 8 8 9 10 10 11 12 12 12 11 11 12 12 12 12 11 11 10 9 9 9 9 10 10 11 11 11 12 12 12 12 12 12 13 13 14 14 14 14
4 4 4 5 6 6 5 5 6 7 8 8 9 10 10 11 11 12 11 11 11 12 12 12 11 11 10 9 9 9 9 9 10 10 11 12 13 13 14 14 15 15 15 15 16 16 16 16 16
4 4 4 5 6 6 5 5 6 7 8 8 9 10 10 11 11 11 11 11 11 11 12 12 11 10 10 10 10 10 10 10 10 11 12 12 14 15 17 17 18 18 18 18 17 17 16 16 16
5 4 4 5 5 5 5 5 5 7 8 8 9 10 10 11 11 11 11 11 11 11 12 12 11 11 11 11 11 11 11 11 11 12 12 13 15 17 18 18 19 19 19 18 18 18 17 17 17
5 5 5 5 5 4 4 4 4 6 7 8 9 10 10 11 11 11 11 11 11 11 11 11 11 11 11 11 11 11 12 12 12 13 13 14 16 17 18 18 18 18 18 18 19 19 18 18 17
6 6 6 5 4 4 3 3 4 5 6 7 8 9 10 11 11 11 11 11 11 11 11 11 12 12 12 12 12 12 12 13 13 14 14 15 16 17 17 17 17 18 18 18 19 19 19 19 18
6 6 5 4 3 3 3 3 3 5 6 7 9 9 10 10 11 10 10 10 11 11 11 12 12 13 13 13 13 13 13 13 14 14 14 14 15 16 17 17 17 17 17 18 19 19 20 19 19
6 4 3 2 1 2 2 3 4 6 8 9 10 10 10 10 10 10 10 10 11 11 11 12 12 13 13 13 13 13 13 13 14 14 14 14 14 15 16 16 16 16 16 17 18 19 19 20 19
5 4 2 1 1 2 3 3 5 8 9 10 10 10 10 10 10 10 10 11 11 12 12 12 12 12 12 13 13 13 13 13 13 13 14 13 14 14 15 16 16 15 16 16 17 18 19 19 20
5 5 4 3 2 2 2 4 5 8 9 10 10 10 10 11 11 11 11 12 12 13 13 13 12 12 12 12 12 13 13 13 13 13 13 13 13 13 14 15 15 15 15 15 16 17 18 19 20
6 6 5 4 2 1 2 3 5 7 8 9 10 10 11 11 12 12 12 12 13 13 14 13 12 12 11 11 12 12 12 12 12 13 13 13 13 13 13 14 14 14 15 15 15 16 17 18 19
6 6 5 5 3 2 2 3 6 8 9 9 10 11 11 11 12 12 12 12 13 13 13 13 13 12 11 11 11 12 12 12 12 12 13 13 13 13 13 13 14 14 14 14 14 15 15 17 17
7 6 6 5 4 3 3 4 7 9 10 10 10 11 11 12 12 12 12 12 12 12 13 13 13 12 12 11 11 11 11 12 12 12 12 13 13 13 13 13 13 14 15 14 14 14 15 15 16